EST,Max TemperatureF,Mean TemperatureF,Min TemperatureF,Max Dew PointF,MeanDew PointF,Min DewpointF,Max Humidity, Mean Humidity, Min Humidity, Max Sea Level PressureIn, Mean Sea Level PressureIn, Min Sea Level PressureIn, Max VisibilityMiles, Mean VisibilityMiles, Min VisibilityMiles, Max Wind SpeedMPH, Mean Wind SpeedMPH, Max Gust SpeedMPH,PrecipitationIn, CloudCover, Events, WindDirDegrees
2013-2-1,52,40,28,27,16,4,65,37,17,30.40,30.16,30.00,10.0,10.0,10.0,30,14,45,0.00,1,,284
2013-2-2,46,36,26,31,15,7,79,47,23,30.42,30.29,30.04,10.0,10.0,10.0,10,5,,0.00,1,,49
2013-2-3,51,42,34,35,31,26,89,67,39,30.04,29.94,29.86,10.0,10.0,10.0,16,8,25,0.00,3,,290
2013-2-4,48,39,30,31,24,19,72,53,33,30.16,30.09,30.01,10.0,10.0,10.0,10,5,,0.00,2,,300
2013-2-5,64,52,39,41,36,28,85,60,28,30.06,29.98,29.90,10.0,9.6,7.0,17,6,23,0.00,1,,230
2013-2-6,64,50,36,42,37,32,89,65,30,30.26,30.13,29.98,10.0,9.0,5.0,15,3,22,0.00,0,Fog,41
2013-2-7,55,50,45,51,46,40,93,83,66,30.29,30.14,29.89,10.0,5.3,2.5,25,15,38,0.33,6,Rain,59
2013-2-8,57,52,46,55,46,32,100,82,56,29.99,29.73,29.49,10.0,6.6,1.8,25,15,36,2.05,6,Rain,326
2013-2-9,53,43,30,29,24,19,82,50,27,30.37,30.20,30.01,10.0,10.0,10.0,21,13,30,0.00,0,,317
2013-2-10,54,41,28,43,33,24,88,72,47,30.49,30.40,30.32,10.0,10.0,10.0,8,3,,0.00,2,,63
2013-2-11,64,56,48,61,57,44,94,85,72,30.31,30.08,29.95,10.0,7.1,1.5,18,12,28,0.17,7,Rain,208
2013-2-12,63,58,51,57,45,31,84,65,32,30.06,29.99,29.94,10.0,9.8,6.0,16,10,26,0.06,4,Rain,261
2013-2-13,55,52,48,54,47,45,94,88,76,29.97,29.78,29.64,10.0,6.0,1.5,16,7,30,0.40,8,Rain,30
2013-2-14,52,46,41,45,38,35,89,71,53,30.10,29.98,29.81,10.0,9.9,8.0,15,8,23,0.00,3,,342
2013-2-15,59,46,34,41,35,28,93,73,33,30.10,30.04,29.97,10.0,8.1,1.8,7,2,,0.00,0,Fog,42
2013-2-16,48,42,35,41,36,30,89,82,66,29.96,29.83,29.70,10.0,7.7,2.5,21,8,31,0.23,6,Rain-Snow,350
2013-2-17,39,32,25,31,22,8,89,66,30,30.29,30.02,29.86,10.0,8.0,2.5,21,12,34,0.01,4,Snow,305
2013-2-18,48,34,19,26,18,10,85,54,23,30.45,30.38,30.32,10.0,10.0,10.0,10,3,,0.00,0,,155
2013-2-19,60,45,30,54,45,27,89,82,64,30.31,30.05,29.91,10.0,8.8,2.0,22,7,30,0.28,5,Fog-Rain,205
2013-2-20,55,46,34,42,27,12,89,55,20,30.12,30.05,29.96,10.0,9.9,8.0,15,7,22,0.00,1,,286
2013-2-21,54,44,34,32,25,19,70,51,28,30.26,30.17,30.10,10.0,10.0,10.0,10,7,,0.00,0,,19
2013-2-22,48,42,37,45,37,27,90,75,55,30.32,30.22,30.10,10.0,9.8,7.0,12,8,,0.00,7,,72
2013-2-23,62,54,46,60,47,44,100,93,87,30.08,29.93,29.83,10.0,3.8,0.2,10,5,,0.84,8,Fog-Rain-Thunderstorm,324
2013-2-24,60,50,39,48,44,37,100,87,53,30.02,29.89,29.78,10.0,4.2,0.2,12,5,29,0.00,5,Fog-Rain,309
2013-2-25,45,41,37,43,33,27,93,71,53,30.19,30.11,30.02,10.0,8.2,0.2,24,10,29,0.00,7,Fog,43
2013-2-26,69,56,42,65,55,35,94,88,76,30.10,29.82,29.61,10.0,5.2,1.8,24,14,33,0.89,8,Rain-Thunderstorm,128
2013-2-27,61,54,46,57,44,39,93,71,49,29.81,29.74,29.63,10.0,9.8,7.0,23,11,30,0.01,4,,248
2013-2-28,55,46,37,41,35,29,83,62,43,29.83,29.76,29.71,10.0,10.0,10.0,15,10,18,0.00,2,,273